Hourly Weather Holubivka

Today, 16 April, Friday

Time Temperature Precipitation Wind Pressure Humidity
00:00 +5°C° 0 mm 3 mps 743 mmHg 87%
01:00 +5°C° 0 mm 4 mps 743 mmHg 89%
02:00 +4°C° 0 mm 4 mps 743 mmHg 91%
03:00 +4°C° 0 mm 4 mps 744 mmHg 91%
04:00 +4°C° 0 mm 4 mps 744 mmHg 91%
05:00 +4°C° 0 mm 4 mps 744 mmHg 91%
06:00 +5°C° 0 mm 4 mps 744 mmHg 85%
07:00 +6°C° 0 mm 4 mps 744 mmHg 79%
08:00 +7°C° 0 mm 5 mps 745 mmHg 73%
09:00 +8°C° 0 mm 5 mps 745 mmHg 69%
10:00 +9°C° 0 mm 5 mps 745 mmHg 65%
11:00 +10°C° 0 mm 5 mps 745 mmHg 61%
12:00 +10°C° 0 mm 5 mps 745 mmHg 59%
13:00 +10°C° 0 mm 5 mps 745 mmHg 56%
14:00 +12°C° 0 mm 5 mps 745 mmHg 54%
15:00 +12°C° 0 mm 4 mps 745 mmHg 54%
16:00 +12°C° 0 mm 4 mps 745 mmHg 54%
17:00 +12°C° 0 mm 4 mps 745 mmHg 53%
18:00 +11°C° 0 mm 3 mps 745 mmHg 59%
19:00 +10°C° 0 mm 3 mps 745 mmHg 64%
20:00 +9°C° 0 mm 3 mps 745 mmHg 70%
21:00 +8°C° 0.1 mm 3 mps 745 mmHg 75%
22:00 +7°C° 0.1 mm 3 mps 745 mmHg 81%
23:00 +5°C° 0.1 mm 3 mps 746 mmHg 87%

Tomorrow, 17 April, Saturday

Time Temperature Precipitation Wind Pressure Humidity
00:00 +4°C° 0 mm 3 mps 746 mmHg 89%
01:00 +4°C° 0 mm 3 mps 746 mmHg 91%
02:00 +4°C° 0 mm 2 mps 746 mmHg 94%
03:00 +4°C° 0 mm 2 mps 746 mmHg 93%
04:00 +3°C° 0 mm 2 mps 746 mmHg 92%
05:00 +3°C° 0 mm 2 mps 746 mmHg 91%
06:00 +3°C° 0 mm 3 mps 747 mmHg 84%
07:00 +5°C° 0 mm 3 mps 747 mmHg 76%
08:00 +6°C° 0 mm 4 mps 747 mmHg 69%
09:00 +7°C° 0 mm 4 mps 747 mmHg 66%
10:00 +7°C° 0 mm 4 mps 747 mmHg 63%
11:00 +8°C° 0 mm 5 mps 748 mmHg 60%
12:00 +8°C° 0 mm 5 mps 748 mmHg 59%
13:00 +8°C° 0 mm 5 mps 748 mmHg 57%
14:00 +9°C° 0 mm 5 mps 748 mmHg 56%
15:00 +9°C° 0 mm 5 mps 748 mmHg 57%
16:00 +10°C° 0 mm 4 mps 748 mmHg 59%
17:00 +10°C° 0 mm 3 mps 748 mmHg 60%
18:00 +9°C° 0 mm 3 mps 748 mmHg 62%
19:00 +9°C° 0 mm 2 mps 748 mmHg 64%
20:00 +8°C° 0 mm 2 mps 748 mmHg 67%
21:00 +8°C° 0 mm 2 mps 748 mmHg 68%
22:00 +8°C° 0 mm 2 mps 748 mmHg 69%
23:00 +7°C° 0 mm 2 mps 748 mmHg 71%

Day after tomorrow, 18 April, Sunday

Time Temperature Precipitation Wind Pressure Humidity
00:00 +7°C° 0 mm 2 mps 748 mmHg 73%
01:00 +6°C° 0 mm 2 mps 748 mmHg 76%
02:00 +6°C° 0 mm 2 mps 748 mmHg 79%
03:00 +6°C° 0 mm 2 mps 748 mmHg 79%
04:00 +6°C° 0 mm 2 mps 747 mmHg 79%
05:00 +6°C° 0 mm 2 mps 747 mmHg 79%
06:00 +7°C° 0 mm 2 mps 747 mmHg 72%
07:00 +9°C° 0 mm 3 mps 747 mmHg 65%
08:00 +10°C° 0 mm 3 mps 747 mmHg 58%
09:00 +12°C° 0 mm 3 mps 747 mmHg 53%
10:00 +13°C° 0 mm 3 mps 747 mmHg 48%
11:00 +14°C° 0 mm 3 mps 747 mmHg 44%
12:00 +16°C° 0 mm 3 mps 746 mmHg 41%
13:00 +16°C° 0 mm 3 mps 746 mmHg 38%
14:00 +17°C° 0 mm 4 mps 746 mmHg 35%
15:00 +16°C° 0 mm 3 mps 746 mmHg 37%
16:00 +16°C° 0 mm 3 mps 746 mmHg 38%
17:00 +16°C° 0 mm 3 mps 746 mmHg 39%
18:00 +13°C° 0 mm 3 mps 746 mmHg 44%
19:00 +13°C° 0 mm 2 mps 746 mmHg 49%
20:00 +12°C° 0 mm 2 mps 746 mmHg 54%
21:00 +10°C° 0 mm 2 mps 746 mmHg 58%
22:00 +10°C° 0 mm 2 mps 746 mmHg 61%
23:00 +10°C° 0 mm 2 mps 745 mmHg 64%

19 April, Monday

Time Temperature Precipitation Wind Pressure Humidity
00:00 +10°C° 0 mm 2 mps 745 mmHg 64%
01:00 +10°C° 0 mm 2 mps 745 mmHg 65%
02:00 +10°C° 0 mm 2 mps 745 mmHg 66%
03:00 +10°C° 0.1 mm 2 mps 745 mmHg 70%
04:00 +9°C° 0.1 mm 3 mps 744 mmHg 75%
05:00 +9°C° 0.1 mm 3 mps 744 mmHg 79%
06:00 +8°C° 0.3 mm 4 mps 744 mmHg 83%
07:00 +8°C° 0.3 mm 4 mps 744 mmHg 86%
08:00 +8°C° 0.3 mm 4 mps 744 mmHg 89%
09:00 +8°C° 0.3 mm 4 mps 743 mmHg 90%
10:00 +8°C° 0.3 mm 4 mps 743 mmHg 91%
11:00 +8°C° 0.3 mm 4 mps 743 mmHg 91%
12:00 +10°C° 0.1 mm 4 mps 743 mmHg 91%
13:00 +10°C° 0.1 mm 3 mps 742 mmHg 90%
14:00 +10°C° 0.1 mm 3 mps 742 mmHg 90%
15:00 +10°C° 0 mm 3 mps 741 mmHg 91%
16:00 +10°C° 0 mm 3 mps 741 mmHg 93%
17:00 +10°C° 0 mm 3 mps 741 mmHg 94%
18:00 +10°C° 0 mm 3 mps 740 mmHg 95%
19:00 +10°C° 0 mm 3 mps 740 mmHg 96%
20:00 +11°C° 0 mm 3 mps 739 mmHg 97%
21:00 +11°C° 0.9 mm 3 mps 738 mmHg 97%
22:00 +11°C° 0.9 mm 3 mps 738 mmHg 98%
23:00 +11°C° 0.9 mm 3 mps 737 mmHg 98%

20 April, Tuesday

Time Temperature Precipitation Wind Pressure Humidity
00:00 +11°C° 1.8 mm 4 mps 736 mmHg 98%
01:00 +12°C° 1.8 mm 5 mps 735 mmHg 97%
02:00 +11°C° 1.8 mm 6 mps 734 mmHg 96%
03:00 +11°C° 2.8 mm 6 mps 733 mmHg 96%
04:00 +12°C° 2.8 mm 5 mps 733 mmHg 96%
05:00 +12°C° 2.8 mm 5 mps 732 mmHg 96%
06:00 +12°C° 2.4 mm 5 mps 732 mmHg 96%
07:00 +12°C° 2.4 mm 5 mps 731 mmHg 95%
08:00 +12°C° 2.4 mm 5 mps 731 mmHg 95%
09:00 +13°C° 0.4 mm 6 mps 731 mmHg 86%
10:00 +14°C° 0.4 mm 7 mps 731 mmHg 78%
11:00 +15°C° 0.4 mm 8 mps 732 mmHg 70%
12:00 +15°C° 0.3 mm 9 mps 732 mmHg 69%
13:00 +14°C° 0.3 mm 10 mps 732 mmHg 68%
14:00 +13°C° 0.3 mm 11 mps 731 mmHg 67%
15:00 +12°C° 0.1 mm 10 mps 731 mmHg 71%
16:00 +9°C° 0.1 mm 10 mps 732 mmHg 75%
17:00 +8°C° 0.1 mm 9 mps 732 mmHg 79%
18:00 +8°C° 0.2 mm 9 mps 732 mmHg 82%
19:00 +7°C° 0.2 mm 9 mps 732 mmHg 84%
20:00 +7°C° 0.2 mm 9 mps 733 mmHg 87%
21:00 +7°C° 0.1 mm 9 mps 734 mmHg 86%
22:00 +7°C° 0.1 mm 8 mps 736 mmHg 85%
23:00 +6°C° 0.1 mm 8 mps 737 mmHg 84%

21 April, Wednesday

Time Temperature Precipitation Wind Pressure Humidity
00:00 +6°C° 0.1 mm 8 mps 738 mmHg 84%
01:00 +6°C° 0.1 mm 8 mps 739 mmHg 84%
02:00 +6°C° 0.1 mm 7 mps 740 mmHg 84%
03:00 +5°C° 0 mm 6 mps 741 mmHg 85%
04:00 +4°C° 0 mm 6 mps 741 mmHg 86%
05:00 +5°C° 0 mm 5 mps 742 mmHg 87%
06:00 +6°C° 0 mm 5 mps 743 mmHg 80%
07:00 +8°C° 0 mm 5 mps 743 mmHg 72%
08:00 +9°C° 0 mm 6 mps 744 mmHg 65%
09:00 +10°C° 0 mm 6 mps 744 mmHg 59%
10:00 +13°C° 0 mm 6 mps 744 mmHg 54%
11:00 +14°C° 0 mm 6 mps 745 mmHg 49%
12:00 +14°C° 0 mm 6 mps 745 mmHg 48%
13:00 +14°C° 0 mm 5 mps 745 mmHg 47%
14:00 +14°C° 0 mm 4 mps 745 mmHg 47%
15:00 +14°C° 0.1 mm 4 mps 745 mmHg 52%
16:00 +13°C° 0.1 mm 4 mps 746 mmHg 57%
17:00 +13°C° 0.1 mm 4 mps 746 mmHg 62%
18:00 +12°C° 0 mm 4 mps 746 mmHg 69%
19:00 +10°C° 0 mm 3 mps 747 mmHg 75%
20:00 +9°C° 0 mm 3 mps 747 mmHg 81%
21:00 +9°C° 0 mm 3 mps 747 mmHg 84%
22:00 +8°C° 0 mm 3 mps 748 mmHg 87%
23:00 +8°C° 0 mm 3 mps 748 mmHg 90%
Show more